[[{"header":{"parameterUnit":"m.s-1","parameterCategory":1,"la1":30.2991,"la2":30.254,"lo1":-89.0895,"lo2":-89.0444,"dy":0.0017,"dx":0.0017,"nx":28,"ny":28,"refTime":"2024-02-20T03:00:00:Z","depth":0,"parameterNumber":2,"parameterNumberName":"U-component_of_WINDS"},"data":[0,0,0,0,0,0,0,0,0,0,0,0,0,0,0,0,0,0,0,0,0,0,0,0,0,0,0,0,0,0,0,0,0,0,0,0,0,0,0,0,0,0,0,0,0,0,0,0,0,0,0,0,0,0,0,0,0,0,0.2005,0.2005,0,0.1988,0.1988,0.1988,0.1938,0.1937,0.1936,0.1935,0.192,0.192,0.1921,0,0,0,0,0,0,0,0,0,0,0,0,0,0.1996,0.1997,0.2005,0.2005,0.2005,0.1988,0.1988,0.1988,0.1938,0.1937,0.1936,0.1934,0.192,0.192,0.1921,0,0,0,0,0,0,0,0,0,0,0,0,0,0.1992,0.1997,0.2005,0.1978,0.1975,0.1988,0.1988,0.1988,0.1938,0.1937,0.1935,0.1934,0.1919,0.192,0.1921,0.196,0,0,0.1924,0.1925,0,0,0,0,0,0,0,0,0.1992,0.1992,0.1982,0.198,0.1977,0.1963,0.1979,0.1978,0.1939,0.1953,0.1935,0.1933,0.1936,0.1935,0.1936,0.1959,0.1959,0.1924,0.1925,0.1925,0.1925,0,0,0,0,0,0,0,0.1993,0.1993,0.1998,0.1982,0.1979,0.1967,0.1965,0.1979,0.1954,0.1951,0.1948,0.1946,0.1934,0.1935,0.1935,0.1958,0.1924,0.1925,0.1926,0.1926,0.2013,0.2015,0,0,0,0,0,0,0.1997,0.1993,0.1999,0.1998,0.1981,0.1969,0.1966,0.1969,0.1953,0.1949,0.1948,0.1944,0.1934,0.1934,0.1934,0.1979,0.1925,0.1926,0.1927,0.2011,0.2013,0.2015,0,0,0,0,0,0,0.1997,0.1997,0.2,0.1995,0.1994,0.197,0.1975,0.197,0.1971,0.1951,0.1946,0.1953,0.1933,0.1933,0.1954,0.1978,0.1926,0.1927,0.2009,0.2012,0.2014,0.2068,0,0,0,0,0,0,0.1996,0.1998,0.2012,0.1995,0.1994,0.2019,0.1976,0.1971,0.1972,0.1967,0.1955,0.1951,0.1932,0.1953,0.1955,0.1978,0.1928,0.2007,0.201,0.2013,0.2064,0.2073,0.208,0,0,0,0,0,0.1996,0.2028,0.2013,0.2014,0.2011,0.202,0.202,0.1997,0.1974,0.1989,0.1976,0.1951,0.1975,0.1955,0.1957,0.1981,0.2005,0.2009,0.2013,0.2061,0.2071,0.2079,0,0,0,0,0,0,0.2049,0.2026,0.2008,0.2036,0.203,0.2012,0.2029,0.2008,0.201,0.2005,0.1976,0.1974,0.1999,0.1992,0.1971,0.2018,0.1986,0.199,0.2022,0.2031,0.2038,0.204,0.1929,0,0,0,0,0,0.2064,0.2073,0.2052,0.2078,0.2076,0.2053,0.2056,0.2039,0.2032,0.203,0.2018,0.2014,0.202,0.2025,0.203,0.2063,0.206,0.208,0.2088,0.2094,0.2099,0.2116,0.2125,0.2028,0.2028,0.2028,0,0,0.2095,0.2083,0.209,0.2088,0.2082,0.2092,0.2052,0.2064,0.2072,0.2032,0.2051,0.2042,0.2035,0.2063,0.2074,0.2058,0.2125,0.2099,0.2104,0.2105,0.2121,0.213,0.2139,0.2031,0.203,0.203,0,0,0.2157,0.2148,0.2169,0.2163,0.2154,0.2139,0.2144,0.2128,0.2121,0.2139,0.211,0.2118,0.213,0.2126,0.2126,0.2185,0.2163,0.2187,0.2227,0.2245,0.2252,0.2259,0.2281,0.2289,0.2192,0.2192,0.2192,0,0.2196,0.221,0.2183,0.2197,0.2197,0.2161,0.2182,0.2178,0.2172,0.2173,0.2154,0.2167,0.216,0.2186,0.2201,0.2201,0.2207,0.2189,0.2253,0.226,0.2266,0.2286,0.2294,0.2195,0.2195,0.2194,0.2194,0,0.226,0.227,0.2288,0.2281,0.2283,0.2301,0.2277,0.2283,0.2265,0.2252,0.2271,0.226,0.2262,0.2267,0.225,0.2291,0.2281,0.2258,0.2226,0.2278,0.2297,0.2305,0.2199,0.2198,0.2197,0.2197,0,0,0.2355,0.2333,0.234,0.2337,0.2323,0.2331,0.2347,0.2348,0.2354,0.235,0.2364,0.2374,0.2352,0.2352,0.2334,0.2349,0.2398,0.2324,0.2324,0.2339,0.2443,0.2461,0.247,0.2382,0.2384,0.2385,0.2444,0,0.2414,0.244,0.2416,0.2447,0.2456,0.2421,0.2435,0.2429,0.2417,0.2424,0.241,0.2418,0.2389,0.2389,0.2402,0.2389,0.2418,0.2384,0.2396,0.2396,0.2399,0.248,0.2499,0.2555,0.2451,0.2452,0.2453,0,0.2487,0.2485,0.2517,0.2502,0.2505,0.2518,0.2517,0.2523,0.2515,0.2505,0.2505,0.2482,0.2498,0.2465,0.2487,0.2464,0.2467,0.2462,0.2463,0.2464,0.2429,0.2484,0.2572,0.2581,0.2464,0.2463,0.2462,0,0.2554,0.256,0.258,0.2578,0.256,0.2571,0.2564,0.2554,0.2557,0.2556,0.2557,0.2559,0.256,0.2561,0.254,0.2518,0.2565,0.253,0.2558,0.2558,0.257,0.257,0.2661,0.2571,0.257,0.257,0.257,0,0.2623,0.2644,0.261,0.2623,0.2645,0.2617,0.2641,0.263,0.2622,0.2632,0.2602,0.2613,0.2583,0.2591,0.2575,0.2595,0.2596,0.2589,0.2584,0.2592,0.2593,0.2594,0.259,0.2572,0.2572,0.2572,0.2571,0,0.2703,0.2681,0.27,0.2681,0.2677,0.2695,0.2679,0.269,0.2675,0.2689,0.269,0.2668,0.2675,0.2654,0.2658,0.2647,0.2677,0.2666,0.2679,0.2676,0.2705,0.2703,0.2801,0.2813,0.2715,0.2715,0.2716,0,0.2748,0.2764,0.2746,0.275,0.2745,0.2752,0.2754,0.2727,0.273,0.2722,0.2735,0.2739,0.2741,0.2755,0.2739,0.2742,0.2731,0.2765,0.2732,0.2739,0.2733,0.2732,0.2734,0.2773,0.2774,0.2775,0.2776,0,0.2832,0.282,0.2824,0.2823,0.2826,0.2825,0.2821,0.2827,0.2798,0.2803,0.2809,0.2811,0.2815,0.282,0.2819,0.2813,0.279,0.2786,0.2793,0.2801,0.2809,0.2806,0.2699,0.2784,0.2784,0.2783,0.2782,0.2782,0.2897,0.2909,0.2898,0.2903,0.2897,0.2895,0.2904,0.289,0.2895,0.2895,0.2879,0.2889,0.2881,0.2878,0.2874,0.2882,0.2866,0.2875,0.2878,0.2881,0.2886,0.2807,0.2881,0.2881,0.2881,0.2881,0.288,0,0.298,0.2971,0.2975,0.2971,0.2975,0.2951,0.2946,0.2951,0.296,0.2954,0.2957,0.2964,0.2969,0.2954,0.2956,0.2966,0.2955,0.2967,0.2967,0.2966,0.29,0.2894,0.2976,0.2976,0.2976,0.2976,0.2976,0.2976,0.3023,0.3042,0.3029,0.3045,0.3036,0.3045,0.3044,0.3042,0.3037,0.3047,0.305,0.304,0.303,0.3032,0.3035,0.303,0.3033,0.3049,0.3041,0.298,0.297,0.2962,0.2956,0.305,0.305,0.3107,0.3107,0.3108]},{"header":{"parameterUnit":"m.s-1","parameterCategory":1,"la1":30.2991,"la2":30.254,"lo1":-89.0895,"lo2":-89.0444,"dy":0.0017,"dx":0.0017,"nx":28,"ny":28,"refTime":"2024-02-20T03:00:00:Z","depth":0,"parameterNumber":3,"parameterNumberName":"V-component_of_WINDS"},"data":[0,0,0,0,0,0,0,0,0,0,0,0,0,0,0,0,0,0,0,0,0,0,0,0,0,0,0,0,0,0,0,0,0,0,0,0,0,0,0,0,0,0,0,0,0,0,0,0,0,0,0,0,0,0,0,0,0,0,0.4363,0.4363,0,0.4368,0.4368,0.4368,0.4338,0.4337,0.4336,0.4335,0.4341,0.4342,0.4343,0,0,0,0,0,0,0,0,0,0,0,0,0,0.4329,0.4329,0.4363,0.4363,0.4363,0.4368,0.4368,0.4368,0.4338,0.4337,0.4336,0.4335,0.434,0.4342,0.4343,0,0,0,0,0,0,0,0,0,0,0,0,0,0.434,0.433,0.4363,0.4349,0.4347,0.4368,0.4368,0.4368,0.4338,0.4337,0.4335,0.4334,0.434,0.4342,0.4343,0.4377,0,0,0.4347,0.4348,0,0,0,0,0,0,0,0,0.4339,0.4341,0.4351,0.435,0.4348,0.4351,0.4358,0.4371,0.4338,0.4342,0.4335,0.4334,0.4345,0.4346,0.435,0.4378,0.4378,0.4347,0.4348,0.4349,0.4349,0,0,0,0,0,0,0,0.4338,0.434,0.4365,0.4351,0.4349,0.4342,0.4342,0.436,0.4351,0.4341,0.4339,0.434,0.4344,0.4349,0.435,0.4378,0.4347,0.4349,0.4349,0.435,0.4435,0.4436,0,0,0,0,0,0,0.4339,0.434,0.4365,0.4365,0.434,0.4344,0.4344,0.4351,0.435,0.4349,0.4341,0.4339,0.4347,0.4348,0.435,0.4391,0.4349,0.435,0.4351,0.4433,0.4435,0.4437,0,0,0,0,0,0,0.4339,0.4342,0.4365,0.4352,0.4354,0.4346,0.4354,0.4352,0.4356,0.435,0.4348,0.4347,0.4346,0.4348,0.4371,0.439,0.4351,0.4352,0.4432,0.4434,0.4436,0.4472,0,0,0,0,0,0,0.4338,0.4342,0.4355,0.4352,0.4355,0.4385,0.4355,0.4353,0.4359,0.4356,0.4355,0.4354,0.4345,0.4369,0.4372,0.4392,0.4353,0.443,0.4433,0.4435,0.4469,0.4475,0.4481,0,0,0,0,0,0.4337,0.4365,0.4355,0.4359,0.4371,0.4387,0.4388,0.4377,0.436,0.4374,0.437,0.4354,0.4388,0.4371,0.4375,0.4395,0.4429,0.4432,0.4435,0.4467,0.4474,0.448,0,0,0,0,0,0,0.437,0.4364,0.4354,0.4382,0.4385,0.4381,0.4398,0.4385,0.4393,0.4389,0.4375,0.4375,0.4401,0.44,0.4382,0.4429,0.4405,0.4409,0.4428,0.4435,0.4441,0.4441,0.4354,0,0,0,0,0,0.438,0.4393,0.4388,0.4413,0.4415,0.4406,0.4413,0.4404,0.4406,0.4407,0.4405,0.4408,0.4419,0.4427,0.4437,0.4469,0.4469,0.4484,0.449,0.4495,0.4498,0.4516,0.4523,0.4447,0.4447,0.4447,0,0,0.4402,0.4401,0.441,0.442,0.4421,0.4435,0.4408,0.4423,0.4434,0.441,0.4431,0.443,0.4432,0.446,0.4472,0.446,0.4519,0.4499,0.4502,0.4504,0.452,0.4527,0.4533,0.4449,0.4449,0.4448,0,0,0.445,0.445,0.4471,0.4473,0.4475,0.4469,0.4474,0.4472,0.447,0.4492,0.4474,0.4486,0.4506,0.4508,0.4512,0.4561,0.4547,0.4564,0.4594,0.4611,0.4617,0.4622,0.464,0.4646,0.4568,0.4568,0.4568,0,0.4477,0.4497,0.4484,0.4501,0.4506,0.4485,0.4506,0.4509,0.4514,0.4518,0.4505,0.4529,0.4529,0.4557,0.4569,0.4573,0.4579,0.4565,0.4617,0.4622,0.4627,0.4644,0.465,0.457,0.457,0.457,0.457,0,0.4531,0.4545,0.4562,0.4568,0.4575,0.4594,0.4584,0.4593,0.4583,0.4578,0.46,0.46,0.4609,0.4615,0.4606,0.4642,0.4635,0.4619,0.4596,0.4636,0.4652,0.4658,0.4573,0.4573,0.4572,0.4571,0,0,0.46,0.4598,0.4605,0.4607,0.4607,0.4618,0.4637,0.4646,0.4654,0.4658,0.4674,0.469,0.4676,0.4681,0.4671,0.4686,0.4725,0.4669,0.4669,0.468,0.4766,0.4778,0.4785,0.4716,0.4717,0.4718,0.4766,0,0.4647,0.4678,0.4667,0.4699,0.4712,0.4692,0.4708,0.471,0.4706,0.4717,0.4713,0.4725,0.4705,0.4708,0.4721,0.4718,0.4742,0.4714,0.473,0.4731,0.4731,0.4793,0.4806,0.4851,0.4771,0.4773,0.4773,0,0.4706,0.4713,0.4746,0.4745,0.475,0.4765,0.4772,0.4783,0.4785,0.4781,0.4786,0.4773,0.4792,0.4767,0.4793,0.4774,0.4779,0.4779,0.478,0.4782,0.4755,0.4798,0.4865,0.4873,0.4783,0.4782,0.4781,0,0.4754,0.4771,0.4794,0.4796,0.4795,0.4806,0.4806,0.4806,0.4813,0.4819,0.4823,0.4832,0.4837,0.4844,0.4834,0.4818,0.4861,0.4836,0.4859,0.4859,0.487,0.4869,0.494,0.4872,0.4872,0.4872,0.4872,0,0.4808,0.483,0.4815,0.4829,0.4853,0.4839,0.4863,0.486,0.4861,0.4875,0.4857,0.487,0.4856,0.4868,0.486,0.4882,0.4885,0.4882,0.488,0.4884,0.4885,0.4889,0.4886,0.4874,0.4873,0.4873,0.4873,0,0.4866,0.4857,0.488,0.4877,0.4876,0.4894,0.4891,0.4904,0.4899,0.4916,0.4919,0.4911,0.4923,0.4914,0.4927,0.4922,0.4951,0.4944,0.4951,0.4949,0.4972,0.4971,0.5049,0.5059,0.4984,0.4985,0.4985,0,0.4901,0.4917,0.4916,0.4923,0.4924,0.4937,0.4943,0.493,0.4937,0.4941,0.4954,0.4965,0.4973,0.4994,0.499,0.4999,0.4993,0.502,0.4994,0.4998,0.4994,0.4994,0.4995,0.5025,0.5026,0.5027,0.5027,0,0.4965,0.496,0.497,0.4978,0.4986,0.4992,0.4996,0.5003,0.499,0.5,0.5012,0.5019,0.5032,0.5043,0.5051,0.5051,0.5037,0.5035,0.5041,0.5046,0.5049,0.5048,0.4965,0.5034,0.5033,0.5033,0.5032,0.5032,0.5013,0.5027,0.5028,0.5039,0.5041,0.5046,0.5058,0.5054,0.5064,0.5073,0.5065,0.5081,0.5082,0.5091,0.5093,0.5105,0.5094,0.5103,0.5105,0.5107,0.5111,0.5047,0.5107,0.5106,0.5106,0.5106,0.5106,0,0.5077,0.5077,0.5087,0.5094,0.5103,0.5089,0.5093,0.5102,0.5115,0.5118,0.5126,0.5141,0.5152,0.5148,0.5158,0.5168,0.5162,0.5172,0.5171,0.5171,0.512,0.5114,0.5176,0.5176,0.5176,0.5176,0.5176,0.5176,0.5111,0.5134,0.5128,0.5151,0.5151,0.5166,0.5169,0.5174,0.5176,0.5193,0.5202,0.5199,0.5199,0.5209,0.5218,0.5217,0.5222,0.5233,0.523,0.5182,0.5175,0.5168,0.5163,0.5234,0.5234,0.528,0.5281,0.5281]}]]